User: anonymous   Login
Location: Unspecified
(0.0000°N, 0.0000°E)
Time: 17:24:02
(UTC+01:00)
Language:

H-2A R/B - Orbit

View from above orbital plane
View from above orbital plane
View from above satellite
View from above satellite

Ground track
Ground track

The orbit data is extracted from the following two-line orbital elements,

1 28932U 06002B   14356.22604852  .00006199  00000-0  61274-3 0  8896
2 28932 098.2767 225.2266 0095400 041.7472 069.9236 14.88913948482557
Epoch (UTC): 22 December 2014 05:25:30
Eccentricity: 0.0095400
inclination: 98.2767°
perigee height: 535 km
apogee height: 668 km
right ascension of ascending node: 225.2266°
argument of perigee: 41.7472°
revolutions per day: 14.88913948
mean anomaly at epoch: 69.9236°
orbit number at epoch: 48255

The dashed part of the orbit path shows where the satellite is in the earth's shadow,  

DLR